GW5167 Weather Reports


time (UTC)temp
C
wind
direction
speed
KPH
gust
KPH
rain 1hr
cm
rain 24hr
cm
rain mn
cm
humidity
%
barometer
mb
20260505152344 11 271 3.2 3.2 0.00 0.00 0.00 41 1009.4
20260505151843 11 247 4.8 6.4 0.00 0.00 0.00 41 1009.6
20260505151340 11 214 1.6 3.2 0.00 0.00 0.00 38 1009.4
20260505150837 11 348 8.0 11.3 0.00 0.00 0.00 40 1009.4
20260505150334 11 310 1.6 3.2 0.00 0.00 0.00 41 1009.5
20260505140258 10 288 3.2 3.2 0.00 0.00 0.00 43 1008.8
20260505130222 10 297 1.6 3.2 0.00 0.00 0.00 49 1009.2
20260505124712 8 248 1.6 1.6 0.00 0.00 0.00 51 1009.3
20260505124209 8 220 0.0 0.0 0.00 0.00 0.00 51 1009.2
20260505123705 8 228 0.0 0.0 0.00 0.00 0.00 52 1009.2
20260505123202 7 224 0.0 0.0 0.00 0.00 0.00 54 1009.3
20260505122658 7 229 0.0 1.6 0.00 0.00 0.00 55 1009.1
20260505122155 7 237 0.0 0.0 0.00 0.00 0.00 57 1008.9
20260505121652 6 239 0.0 0.0 0.00 0.00 0.00 57 1009.1
20260505121148 6 217 0.0 1.6 0.00 0.00 0.00 57 1008.8
20260505120646 6 216 0.0 0.0 0.00 0.00 0.00 58 1008.9
20260505120142 6 223 0.0 1.6 0.00 0.00 0.00 59 1009.0
20260505115641 5 235 0.0 0.0 0.00 0.00 0.00 61 1008.9
20260505115139 5 236 0.0 0.0 0.00 0.00 0.00 62 1008.6
20260505114636 5 236 0.0 0.0 0.00 0.00 0.00 62 1008.6
20260505114132 5 236 0.0 0.0 0.00 0.00 0.00 61 1008.4
20260505113628 5 236 0.0 0.0 0.00 0.00 0.00 61 1008.1
20260505113125 5 236 0.0 0.0 0.00 0.00 0.00 61 1008.1
20260505112621 5 235 0.0 1.6 0.00 0.00 0.00 62 1008.2
20260505112120 5 240 1.6 4.8 0.00 0.00 0.00 62 1007.8
20260505111619 5 237 0.0 0.0 0.00 0.00 0.00 63 1007.8
20260505111115 4 237 0.0 0.0 0.00 0.00 0.00 63 1007.8
20260505110612 4 237 0.0 0.0 0.00 0.00 0.00 63 1007.7
20260505110109 4 237 0.0 0.0 0.00 0.00 0.00 64 1007.6
20260505102044 5 259 0.0 0.0 0.00 0.00 0.00 62 1006.8
20260505101543 5 259 0.0 0.0 0.00 0.00 0.00 61 1006.6
20260505101039 5 245 0.0 0.0 0.00 0.00 0.00 60 1006.8
20260505100536 5 246 0.0 0.0 0.00 0.00 0.00 60 1007.0
20260505100033 5 246 0.0 0.0 0.00 0.00 0.00 60 1007.0
20260505095529 5 246 0.0 0.0 0.00 0.00 0.00 60 1006.8
20260505095025 5 246 0.0 0.0 0.00 0.00 0.00 59 1007.1
20260505094522 5 246 0.0 0.0 0.00 0.00 0.00 58 1007.2
20260505094018 5 247 0.0 0.0 0.00 0.00 0.00 59 1006.9
20260505093515 5 249 0.0 0.0 0.00 0.00 0.00 58 1006.9
20260505093012 5 249 0.0 0.0 0.00 0.00 0.00 58 1006.9
20260505092509 5 251 0.0 0.0 0.00 0.00 0.00 58 1006.5
20260505092008 5 259 0.0 0.0 0.00 0.00 0.00 58 1006.4
20260505091504 5 245 0.0 0.0 0.00 0.00 0.00 58 1006.5
20260505091002 5 247 0.0 0.0 0.00 0.00 0.00 58 1006.3
20260505090500 5 247 0.0 0.0 0.00 0.00 0.00 58 1006.1
20260505085957 5 249 0.0 0.0 0.00 0.00 0.00 58 1006.1
20260505085455 5 258 0.0 0.0 0.00 0.00 0.00 58 1006.1
20260505084953 5 254 0.0 0.0 0.00 0.00 0.00 58 1005.9
20260505084451 5 254 0.0 0.0 0.00 0.00 0.00 58 1005.8
20260505083949 5 254 0.0 0.0 0.00 0.00 0.00 59 1005.8
20260505083446 5 252 0.0 0.0 0.00 0.00 0.00 59 1005.7
20260505082942 5 251 0.0 0.0 0.00 0.00 0.00 58 1005.7
20260505082438 5 240 0.0 0.0 0.00 0.00 0.00 57 1005.7
20260505081935 5 240 0.0 0.0 0.00 0.00 0.00 56 1005.8
20260505081432 5 239 0.0 1.6 0.00 0.00 0.00 56 1005.8
20260505080928 5 239 0.0 0.0 0.00 0.00 0.00 55 1005.7
20260505080425 6 239 0.0 0.0 0.00 0.00 0.00 54 1005.4
20260505075920 6 239 0.0 0.0 0.00 0.00 0.00 53 1005.5
20260505075417 6 238 0.0 0.0 0.00 0.00 0.00 52 1005.7
20260505074915 6 236 0.0 0.0 0.00 0.00 0.00 53 1005.8
20260505074412 7 236 0.0 0.0 0.00 0.00 0.00 51 1006.2
20260505073909 7 236 0.0 0.0 0.00 0.00 0.00 51 1006.0
20260505073407 7 242 0.0 0.0 0.00 0.00 0.00 50 1006.2
20260505072904 7 246 0.0 0.0 0.00 0.00 0.00 50 1006.1
20260505072359 7 262 1.6 1.6 0.00 0.00 0.00 49 1006.1
20260505071856 7 251 1.6 1.6 0.00 0.00 0.00 49 1005.8
20260505071352 7 276 1.6 1.6 0.00 0.00 0.00 50 1005.7
20260505070850 7 337 4.8 4.8 0.00 0.00 0.00 49 1005.8
20260505070346 7 272 1.6 1.6 0.00 0.00 0.00 49 1005.9
20260505065842 7 356 3.2 4.8 0.00 0.00 0.00 48 1005.7
20260505065339 7 322 1.6 3.2 0.00 0.00 0.00 48 1005.9
20260505064836 8 320 8.0 9.7 0.00 0.00 0.00 47 1005.9
20260505064333 8 251 3.2 4.8 0.00 0.00 0.00 48 1005.8
20260505063831 8 7 8.0 9.7 0.00 0.00 0.00 46 1005.8
20260505063326 8 307 6.4 6.4 0.00 0.00 0.00 46 1006.0
20260505062823 8 352 6.4 6.4 0.00 0.00 0.00 46 1006.0
20260505062321 8 329 6.4 6.4 0.00 0.00 0.00 45 1006.1
20260505061818 8 350 6.4 6.4 0.00 0.00 0.00 46 1006.0
20260505061316 8 349 4.8 6.4 0.00 0.00 0.00 45 1006.1
20260505060813 8 9 3.2 4.8 0.00 0.00 0.00 46 1005.7
20260505060310 8 330 1.6 1.6 0.00 0.00 0.00 47 1005.8
20260505055805 9 357 6.4 9.7 0.00 0.00 0.00 47 1005.8
20260505055303 9 345 8.0 11.3 0.00 0.00 0.00 46 1005.6
20260505054759 9 325 8.0 9.7 0.00 0.00 0.00 45 1005.4
20260505054257 10 343 6.4 6.4 0.00 0.00 0.00 45 1005.5
20260505053755 10 319 9.7 12.9 0.00 0.00 0.00 45 1005.5
20260505053251 10 13 14.5 20.9 0.00 0.00 0.00 45 1005.2
20260505052748 10 340 16.1 17.7 0.00 0.00 0.00 45 1005.0
20260505052245 10 287 14.5 22.5 0.00 0.00 0.00 44 1005.0
20260505051742 10 345 12.9 16.1 0.00 0.00 0.00 45 1005.0
20260505051240 10 343 12.9 17.7 0.00 0.00 0.00 44 1005.0
20260505050738 10 337 19.3 24.1 0.00 0.00 0.00 44 1005.1
20260505050236 10 324 17.7 22.5 0.00 0.00 0.00 43 1005.0
20260505041706 11 352 17.7 20.9 0.00 0.00 0.00 42 1004.5
20260505041203 11 349 16.1 27.4 0.00 0.00 0.00 43 1004.4
20260505040700 11 336 6.4 9.7 0.00 0.00 0.00 44 1004.6
20260505040157 11 271 6.4 11.3 0.00 0.00 0.00 44 1004.5
20260505035654 11 354 8.0 12.9 0.00 0.00 0.00 44 1004.6
20260505035150 11 320 6.4 6.4 0.00 0.00 0.00 44 1004.5
20260505034646 11 347 6.4 6.4 0.00 0.00 0.00 44 1004.7
20260505034144 11 276 4.8 4.8 0.00 0.00 0.00 43 1004.8
20260505033640 11 262 3.2 4.8 0.00 0.00 0.00 43 1004.6
20260505033139 11 263 3.2 4.8 0.00 0.00 0.00 43 1004.4
20260505032636 11 266 8.0 11.3 0.00 0.00 0.00 42 1004.6
20260505032132 11 341 9.7 12.9 0.00 0.00 0.00 43 1004.4
20260505031630 12 226 6.4 6.4 0.00 0.00 0.00 44 1004.3
20260505031125 12 326 4.8 4.8 0.00 0.00 0.00 44 1004.1
20260505030623 12 322 4.8 4.8 0.00 0.00 0.00 43 1004.3
20260505030119 12 277 11.3 14.5 0.00 0.00 0.00 43 1004.1
20260505025614 12 312 8.0 14.5 0.00 0.00 0.00 43 1003.9
20260505025114 12 320 6.4 6.4 0.00 0.00 0.00 43 1003.7
20260505024610 13 320 9.7 12.9 0.00 0.00 0.00 42 1003.7
20260505024108 13 306 8.0 11.3 0.00 0.00 0.00 43 1003.6
20260505023605 13 352 16.1 20.9 0.00 0.00 0.00 42 1003.7
20260505023103 13 332 8.0 12.9 0.00 0.00 0.00 41 1003.6
20260505022600 13 308 9.7 17.7 0.00 0.00 0.00 41 1002.9
20260505022056 13 237 9.7 11.3 0.00 0.00 0.00 40 1002.9
20260505021553 14 296 8.0 12.9 0.00 0.00 0.00 39 1003.0
20260505021050 14 272 8.0 9.7 0.00 0.00 0.00 38 1002.6
20260505020550 14 273 6.4 11.3 0.00 0.00 0.00 38 1002.6
20260505020047 14 245 12.9 22.5 0.00 0.00 0.00 37 1002.4
20260505015544 14 246 4.8 6.4 0.00 0.00 0.00 36 1002.1
20260505015041 14 256 6.4 11.3 0.00 0.00 0.00 36 1001.9
20260505014537 14 243 1.6 3.2 0.00 0.00 0.00 35 1002.2
20260505014035 14 335 3.2 3.2 0.00 0.00 0.00 34 1001.6
20260505013532 14 221 6.4 6.4 0.00 0.00 0.00 34 1001.6
20260505013029 14 302 6.4 12.9 0.00 0.00 0.00 34 1002.2
20260505012527 14 239 8.0 11.3 0.00 0.00 0.00 33 1001.9
20260505012024 14 309 6.4 11.3 0.00 0.00 0.00 33 1001.7
20260505011519 15 309 6.4 9.7 0.00 0.00 0.00 32 1001.6
20260505011017 15 314 9.7 11.3 0.00 0.00 0.00 32 1001.6
20260505010512 15 227 6.4 9.7 0.00 0.00 0.00 33 1001.5
20260505010009 15 280 6.4 11.3 0.00 0.00 0.00 33 1001.3
20260505005505 15 306 11.3 16.1 0.00 0.00 0.00 32 1001.1
20260505005004 15 267 4.8 9.7 0.00 0.00 0.00 33 1001.3
20260505004500 15 267 8.0 9.7 0.00 0.00 0.00 33 1001.3
20260505003956 15 292 6.4 6.4 0.00 0.00 0.00 34 1001.2
20260505003454 16 281 16.1 24.1 0.00 0.00 0.00 34 1001.0
20260505002950 16 263 6.4 11.3 0.00 0.00 0.00 34 1000.9
20260505002446 16 260 9.7 12.9 0.00 0.00 0.00 34 1000.9
20260505001945 16 256 6.4 6.4 0.00 0.00 0.00 34 1000.8
20260505001442 17 4 17.7 20.9 0.00 0.00 0.00 33 1000.7
20260505000938 17 314 16.1 20.9 0.00 0.00 0.00 32 1000.7
20260505000437 17 297 17.7 20.9 0.00 0.00 0.00 31 1000.6
20260504235933 17 195 12.9 20.9 0.00 0.00 0.00 31 1000.7
20260504235431 17 310 6.4 9.7 0.00 0.00 0.00 32 1000.8
20260504234926 18 233 9.7 12.9 0.00 0.00 0.00 31 1000.7
20260504234424 18 314 14.5 17.7 0.00 0.00 0.00 30 1000.8
20260504233920 18 356 14.5 17.7 0.00 0.00 0.00 29 1000.6
20260504233416 18 311 6.4 14.5 0.00 0.00 0.00 30 1000.7
20260504232913 18 16 16.1 24.1 0.00 0.00 0.00 29 1000.6
20260504232410 19 198 11.3 17.7 0.00 0.00 0.00 29 1000.6
20260504231907 19 233 16.1 24.1 0.00 0.00 0.00 30 1000.4
20260504231403 19 314 12.9 16.1 0.00 0.00 0.00 31 1000.2
20260504230900 18 320 14.5 16.1 0.00 0.00 0.00 33 1000.1
20260504230357 20 272 4.8 9.7 0.00 0.00 0.00 32 1000.0
20260504225856 20 351 6.4 9.7 0.00 0.00 0.00 32 1000.0
20260504225352 20 71 6.4 9.7 0.00 0.00 0.00 31 999.9
20260504224850 20 0 11.3 12.9 0.00 0.00 0.00 30 999.8
20260504224346 20 272 8.0 25.7 0.00 0.00 0.00 32 999.7
20260504223843 20 306 6.4 9.7 0.00 0.00 0.00 31 999.8
20260504223338 20 330 14.5 16.1 0.00 0.00 0.00 29 999.7
20260504222835 21 353 25.7 30.6 0.00 0.00 0.00 29 999.5
20260504222332 21 8 17.7 22.5 0.00 0.00 0.00 29 999.4
20260504221831 21 339 14.5 24.1 0.00 0.00 0.00 29 999.2
20260504221327 21 338 17.7 22.5 0.00 0.00 0.00 29 999.2
20260504220824 22 358 24.1 37.0 0.00 0.00 0.00 30 999.1
20260504220321 22 12 12.9 20.9 0.00 0.00 0.00 29 999.1
20260504215818 22 285 9.7 11.3 0.00 0.00 0.00 29 999.0
20260504215314 23 258 4.8 6.4 0.00 0.00 0.00 29 998.9
20260504214811 23 210 4.8 4.8 0.00 0.00 0.00 29 998.7
20260504214308 22 325 6.4 11.3 0.00 0.00 0.00 29 998.7
20260504213804 22 337 11.3 16.1 0.00 0.00 0.00 29 998.7
20260504213300 23 264 8.0 11.3 0.00 0.00 0.00 29 998.7
20260504212758 23 326 25.7 33.8 0.00 0.00 0.00 28 998.5
20260504212254 23 358 11.3 14.5 0.00 0.00 0.00 28 998.5
20260504211752 23 250 6.4 14.5 0.00 0.00 0.00 30 998.4
20260504211247 23 243 6.4 9.7 0.00 0.00 0.00 28 998.4
20260504210745 24 308 12.9 16.1 0.00 0.00 0.00 28 998.2
20260504210242 24 292 6.4 12.9 0.00 0.00 0.00 29 998.3
20260504205739 24 34 16.1 25.7 0.00 0.00 0.00 27 998.3
20260504205237 24 244 9.7 12.9 0.00 0.00 0.00 28 998.1
20260504204735 24 260 6.4 6.4 0.00 0.00 0.00 28 998.2
20260504204233 24 5 8.0 11.3 0.00 0.00 0.00 29 998.1
20260504203732 24 347 6.4 12.9 0.00 0.00 0.00 32 998.1
20260504203229 25 345 8.0 14.5 0.00 0.00 0.00 31 998.0
20260504202729 25 300 4.8 4.8 0.00 0.00 0.00 31 998.2
20260504202226 25 303 8.0 12.9 0.00 0.00 0.00 31 997.9
20260504201723 25 310 17.7 24.1 0.00 0.00 0.00 31 997.9
20260504201220 25 7 16.1 24.1 0.00 0.00 0.00 31 997.9
20260504200718 25 309 11.3 12.9 0.00 0.00 0.00 33 997.8
20260504200214 25 303 11.3 16.1 0.00 0.00 0.00 31 997.9
20260504195711 26 224 8.0 11.3 0.00 0.00 0.00 33 997.6
20260504195206 26 291 11.3 14.5 0.00 0.00 0.00 32 997.5
20260504194704 26 337 8.0 16.1 0.00 0.00 0.00 33 997.5
20260504194159 25 295 12.9 20.9 0.00 0.00 0.00 33 997.4
20260504193656 25 296 8.0 12.9 0.00 0.00 0.00 34 997.5
20260504193154 26 294 6.4 11.3 0.00 0.00 0.00 34 997.4
20260504192652 26 339 8.0 11.3 0.00 0.00 0.00 32 997.3
20260504192150 27 206 3.2 6.4 0.00 0.00 0.00 30 997.3
20260504191648 27 278 3.2 4.8 0.00 0.00 0.00 31 997.2
20260504191143 26 306 6.4 9.7 0.00 0.00 0.00 34 997.1
20260504190640 26 307 6.4 9.7 0.00 0.00 0.00 32 997.1
20260504190137 26 334 8.0 17.7 0.00 0.00 0.00 34 997.2
20260504185633 27 295 9.7 14.5 0.00 0.00 0.00 31 997.0
20260504185130 27 234 4.8 6.4 0.00 0.00 0.00 29 997.1
20260504184626 28 345 4.8 6.4 0.00 0.00 0.00 28 996.7
20260504184121 27 239 6.4 11.3 0.00 0.00 0.00 27 996.8
20260504183618 27 229 4.8 6.4 0.00 0.00 0.00 27 996.9
20260504183116 27 277 4.8 9.7 0.00 0.00 0.00 29 997.1
20260504182614 27 197 3.2 4.8 0.00 0.00 0.00 28 996.7
20260504182111 27 253 4.8 6.4 0.00 0.00 0.00 29 997.0
20260504181608 27 345 9.7 14.5 0.00 0.00 0.00 29 997.2
20260504181105 26 246 4.8 9.7 0.00 0.00 0.00 29 997.2
20260504180604 27 264 6.4 9.7 0.00 0.00 0.00 29 997.0
20260504180103 27 253 8.0 12.9 0.00 0.00 0.00 29 997.0
20260504175600 26 289 4.8 6.4 0.00 0.00 0.00 30 997.0
20260504175056 26 308 6.4 9.7 0.00 0.00 0.00 29 997.1
20260504174555 26 271 3.2 3.2 0.00 0.00 0.00 29 997.1
20260504174051 26 272 4.8 9.7 0.00 0.00 0.00 29 997.2
20260504173548 26 176 4.8 11.3 0.00 0.00 0.00 29 997.2
20260504173045 26 316 8.0 12.9 0.00 0.00 0.00 29 997.3
20260504172541 26 275 6.4 9.7 0.00 0.00 0.00 31 997.2
20260504172038 26 281 3.2 4.8 0.00 0.00 0.00 29 997.4
20260504171535 26 284 6.4 12.9 0.00 0.00 0.00 29 997.4
20260504171032 27 252 4.8 6.4 0.00 0.00 0.00 28 997.1
20260504170527 27 219 6.4 9.7 0.00 0.00 0.00 28 997.2